User: anonymous   Login
Location: Brunsbüttel
(52.3892°N, 10.6138°E)
Time: 11:24:59
(UTC+00:00)
Language:

Iridium 4 Rocket - Orbit

View from above orbital plane
View from above orbital plane
View from above satellite
View from above satellite

Ground track
Ground track

The orbit data is extracted from the following two-line orbital elements,

1 24797U 97020F   25189.21113519  .00000667  00000-0  13126-3 0  9990
2 24797  86.8956 354.2713 0214847 212.8722 321.5577 14.47327667482863
Epoch (UTC): 08 July 2025 05:04:02
Eccentricity: 0.0214847
inclination: 86.8956°
perigee height: 581 km
apogee height: 887 km
right ascension of ascending node: 354.2713°
argument of perigee: 212.8722°
revolutions per day: 14.47327667
mean anomaly at epoch: 321.5577°
orbit number at epoch: 48286

The dashed part of the orbit path shows where the satellite is in the earth's shadow,  

DLR